Regional Weather Roundup
Issued by NWS

Home | Current Version | Previous Version | Text Only | Print | Product List | Glossary On
Versions: 1 2 3 4 5 6 7 8 9 10 11 12 13 14 15 16 17 18 19 20 21 22 23 24 25 26 27 28 29 30 31 32 33 34 35 36 37 38 39 40 41 42 43 44 45 46 47 48 49 50
000
ASUS44 KFWD 191115
RWRTX
NORTH TEXAS HOURLY WEATHER ROUNDUP
NATIONAL WEATHER SERVICE FORT WORTH TX
500 AM CST THU JAN 19 2017

NOTE: "FAIR" INDICATES FEW OR NO CLOUDS BELOW 12,000 FEET WITH NO
SIGNIFICANT WEATHER AND/OR OBSTRUCTIONS TO VISIBILITY.

TXZ118-119-191200-
DALLAS/FORT WORTH METROPLEX

CITY           SKY/WX    TMP DP  RH WIND       PRES   REMARKS
DFW AIRPORT    FOG       48  48 100 SW7       29.87F VSB 1/8
DALLAS LOVE    CLOUDY    50  47  89 SW3       29.88F FOG
FTW MEACHAM    CLOUDY    49  47  93 S8        29.87F
DAL-EXECUTIVE  CLOUDY    49  48  97 SW3       29.88F
FTW-ALLIANCE   CLOUDY    47  46  97 S9        29.86F FOG
FTW-NAS-JRB    CLOUDY    50  48  93 S12         N/A
FTW-SPINKS     CLOUDY    48  47  97 S6        29.89F FOG
ARLINGTON      FOG       47  46  97 SE3       29.88F VSB 3/4
GRAND PRAIRIE  CLOUDY    47  47 100 S3        29.91F
MESQUITE       CLOUDY    50  50  99 CALM      29.89F
LANCASTER      CLOUDY    49  47  93 CALM      29.90F
$$

TXZ091>094-102>105-117-120-121-131>134-191200-
NORTH CENTRAL TEXAS

CITY           SKY/WX    TMP DP  RH WIND       PRES   REMARKS
SHRMAN/DENISON CLOUDY   N/A N/A N/A S6        29.87F FOG
GAINESVILLE    FOG       42  42  99 SE5       29.87F VSB 1/4 WCI  39
BOWIE          FOG       45  45 100 S6        29.84F VSB 1/4
BRIDGEPORT     MOCLDY    46  46 100 SE6       29.86F FOG
DECATUR        FOG       63  63 100 S9        29.84F VSB 1/2
DENTON         CLOUDY    45  45 100 SE9       29.86F FOG
MCKINNEY       CLOUDY    50  50 100 S5        29.88F FOG
BONHAM         CLOUDY    48  48 100 SE3       29.88F FOG
GREENVILLE     CLOUDY    50  50 100 CALM      29.89F FOG
ROCKWALL       CLOUDY    50  50 100 S5        29.90S FOG
TERRELL        CLOUDY    50  49  96 CALM      29.89F FOG
WAXAHACHIE     CLOUDY    48  48 100 CALM      29.90F FOG
CLEBURNE       FOG       48  48 100 S6        29.88F VSB 1
GRANBURY       CLOUDY    51  48  90 S3        29.88F
$$

TXZ083>090-098>101-113>116-127>130-139>142-154-155-191200-
WESTERN NORTH TEXAS

CITY           SKY/WX    TMP DP  RH WIND       PRES   REMARKS
WICHITA FALLS  CLEAR     39  38  96 S8        29.80F FOG     WCI  33
WF-KICKAPOO    PTCLDY    40  40 100 S6        29.82F FOG     WCI  35
VERNON         CLEAR     42  38  86 S9        29.78F WCI  37
ABILENE        CLEAR     44  43  96 S12       29.85F WCI  38
ABILENE-DYESS  CLEAR     40  36  86 S8        29.83F WCI  35
GRAHAM         CLEAR     43  43 100 CALM      29.83S FOG
BRECKENRIDGE   CLEAR     44  44  98 S6        29.84S
CISCO          CLEAR     45  43  93 S8        29.85F
RANGER         FOG       45  45 100 S10       29.85F VSB 1/4 WCI  39
MINERAL WELLS  FOG       44  43  96 SE7       29.84F VSB 1/4
STEPHENVILLE   CLOUDY    48  46  91 SW3       29.88F
COMANCHE       MOCLDY    46  46 100 W6        29.87F
BROWNWOOD      CLOUDY    46  46 100 S7        29.88F
COLEMAN        FOG       43  43 100 SW3       29.88F VSB 1/4
$$

TXZ143>147-156>162-174-175-191200-
CENTRAL TEXAS

CITY           SKY/WX    TMP DP  RH WIND       PRES   REMARKS
WACO           CLOUDY    51  50  96 SW5       29.89F
WACO-MCGREGOR  CLOUDY    51  50  96 W5        29.89F
HILLSBORO      CLOUDY    50  49  98 CALM      29.88F FOG
CORSICANA      CLOUDY    52  51  97 W3        29.90F FOG
MEXIA          CLOUDY    50  49  97 CALM      29.89F
HEARNE         CLOUDY    51  51 100 CALM      29.92S FOG
CAMERON        MOCLDY    51  51  97 S5        29.91F
TEMPLE         CLOUDY    52  50  93 SW6       29.90F
KILLEEN        CLOUDY    49  48  97 SW3       29.86F
KILLEEN-SKYLRK CLOUDY    50  49  96 W3        29.88F
GATESVILLE     CLOUDY    50  48  93 SW5       29.90F
HAMILTON       CLOUDY    49  49 100 SW7       29.87F
LAMPASAS       CLOUDY    50  49  96 CALM      29.87F
$$

TXZ095>097-106>112-122>126-135>138-148>153-164>167-191200-
EAST TEXAS

CITY           SKY/WX    TMP DP  RH WIND       PRES   REMARKS
PARIS          CLOUDY    48  46  93 CALM      29.88F
SULPHUR SPRNGS CLOUDY    51  51 100 CALM      29.89F FOG
MOUNT PLEASANT CLOUDY    51  51 100 NW5       29.89F
GILMER         CLOUDY    51  51 100 CALM      29.88F FOG
MINEOLA        CLOUDY    52  50  93 CALM      29.89S FOG
TYLER          FOG       52  52 100 W5        29.88F VSB 3/4
LONGVIEW       CLOUDY    53  53 100 NW6       29.86F FOG
MARSHALL       CLOUDY    51  50  94 CALM      29.89F VSB 3/4
ATHENS         CLOUDY    50  50 100 CALM      29.89F FOG
PALESTINE      FOG       51  51 100 CALM      29.91F VSB 1/2
JACKSONVILLE   FOG       52  52 100 W6        29.91S VSB 3/4
HENDERSON      FOG      N/A N/A N/A CALM      29.89S VSB 1
CENTER         FOG       58  57  96 N6        29.87F VSB 1/2
NACOGDOCHES    CLOUDY    54  52  94 W5        29.87S
LUFKIN         CLOUDY    53  53 100 W6        29.88F FOG
$$

SUPPLEMENTAL OBSERVATIONS (CENTRAL)

CITY           SKY/WX    TMP DP  RH WIND       PRES   REMARKS
DENISON DAM      N/A     48  45  87 S3          N/A
CADDO GRASSLND   N/A     50  48  93 SE1         N/A
PAT MAYSE LAKE   N/A     48  46  93 CALM        N/A
GREENVILLE       N/A     50  48  93 W2          N/A
CEDAR HILL       N/A     48  46  93 S1          N/A
ATHENS           N/A     50  48  93 CALM        N/A
LAKE LIMESTONE   N/A     52  50  93 NW1         N/A
MCGREGOR         N/A     50  48  93 W3          N/A
TEMPLE           N/A     52  50  93 W3          N/A
$$

SUPPLEMENTAL OBSERVATIONS (WEST)

CITY           SKY/WX    TMP DP  RH WIND       PRES   REMARKS
MILLERS CREEK    N/A     43  41  93 SW8         N/A  WCI  38
POSSUM KINGDOM   N/A     45  43  93 S6          N/A
LBJ GRASSLAND    N/A     46  45  93 S7          N/A
GRANBURY         N/A     50  48  93 S5          N/A
COMANCHE         N/A     46  45  93 W5G14       N/A
HAMBY            N/A     45  39  81 S9          N/A  WCI  40
IVIE RESERVOIR   N/A     37  36  93 SE2         N/A
COLORADO BEND    N/A     48  45  87 W3          N/A
$$

SUPPLEMENTAL OBSERVATIONS (EAST)

CITY           SKY/WX    TMP DP  RH WIND       PRES   REMARKS
CLARKSVILLE      N/A     48  46  93 NE1         N/A
TEXARKANA        N/A     50  48  93 NW1         N/A
LINDEN           N/A     50  48  93 N1          N/A
CADDO LAKE       N/A     52  50  93 N1          N/A
GILMER           N/A     52  50  93 NW3         N/A
HENDERSON        N/A     54  52  94 W3          N/A
LUFKIN           N/A     54  52  94 MISG        N/A
N SABINE NF      N/A     57  55  94 MISG        N/A
S SABINE NF      N/A     57  55  94 W3          N/A
$$

SUPPLEMENTAL OBSERVATIONS ARE A COLLECTION OF AUTOMATED INSTRUMENTS
THAT ARE MAINTAINED BY A VARIETY OF FEDERAL AND STATE AGENCIES.
CERTAIN ELEMENTS...SUCH AS HUMIDITY VALUES AND SUSTAINED WIND
SPEEDS...MAY BE APPROXIMATED.





USA.gov is the U.S. government's official web portal to all federal, state and local government web resources and services.